Regional Weather Roundup
Issued by NWS Grand Forks, ND

Home | Current Version | Previous Version | Graphics & Text | Print | Product List | Glossary On
Versions: 1 2 3 4 5 6 7 8 9 10 11 12 13 14 15 16 17 18 19 20 21 22 23 24 25 26 27 28 29 30 31 32 33 34 35 36 37 38 39 40 41 42 43 44 45 46 47 48 49
000
ASUS43 KFGF 271931
RWRFGF
PRAIRIE TO PINES  WEATHER ROUNDUP
NATIONAL WEATHER SERVICE EASTERN NORTH DAKOTA/GRAND FORKS ND
100 PM CST MON FEB 27 2017

 **SATELLITE DATA USED TO AUGMENT SKY COVER AT AUTOMATED STATIONS**
 *****  WEATHER ACROSS EASTERN NORTH DAKOTA  *****

CITY           SKY/WX    TMP DP  RH WIND       PRES   REMARKS
GRAND FORKS    NOT AVBL
GRAND FRKS AFB NOT AVBL
DEVILS LAKE    LGT SNOW  16  12  86 N9        29.86F FOG     WCI   4
WAHPETON ARPT    N/A     30  25  80 E8        29.84F WCI  23
$$

 ***** WEATHER ACROSS CENTRAL AND WESTERN NORTH DAKOTA  *****

CITY           SKY/WX    TMP DP  RH WIND       PRES   REMARKS
BISMARCK       NOT AVBL
MINOT          LGT SNOW  14   8  77 N7        29.86S WCI   4
JAMESTOWN      NOT AVBL
MINOT AFB      LGT SNOW  12   7  79 NE7       29.85F WCI   2
GARRISON         N/A     15   9  76 NE12      29.81F WCI   2
WILLISTON      NOT AVBL
DICKINSON      NOT AVBL
HETTINGER      NOT AVBL
$$

 *****  OTHER AIRPORT OBSERVATIONS IN OUR AREA  *****

CITY           SKY/WX    TMP DP  RH WIND       PRES   REMARKS
WALHALLA       NOT AVBL
GRAFTON AIRPOR LGT SNOW  23  19  86 N8        29.93F WCI  14
VALLEY CITY AR MOCLDY    28  21  74 E9        29.83F WCI  20
CANDO          NOT AVBL
CAVALIER APRT  LGT SNOW  18  14  86 N9        29.92F WCI   6
GWINNER        FAIR      34  28  80 E13       29.79F WCI  25
SHEYENNE NWR     N/A     30  19  64 E8        29.95S WCI  22
ROLLA          LGT SNOW  10   7  85 N10       29.86S WCI  -3
 ***** THE ABOVE OBSERVATIONS ARE NON NWS ARE NOT QUALITY
       CONTROLLED AND MAY MIS-REPORT RAIN FOR SNOW...
$$

  *****  WEATHER ACROSS NORTHERN MINNESOTA  *****

CITY           SKY/WX    TMP DP  RH WIND       PRES   REMARKS
FLAG ISLAND    FAIR      21  12  68 S14       29.86F WCI   8
WARROAD        FAIR      27  14  59 SW8       29.89S WCI  18
ROSEAU         FAIR      25  16  68 SW9       29.89S WCI  15
HALLOCK        LGT SNOW  19  16  86 NW7       29.92S WCI  10
THF RVR FALLS  NOT AVBL
BAUDETTE       NOT AVBL
WASKISH        CLOUDY    25  12  58 NW5       29.89F WCI  19
CROOKSTON      FAIR      25  18  74 CALM      29.91F
STEPHEN NDAWN    N/A     23  18  80 W7          N/A  WCI  15
GREENBUSH NDAW   N/A     23  18  80 W10         N/A  WCI  12
$$
  *****  WEATHER ACROSS CENTRAL AND WEST MINNESOTA  *****

CITY           SKY/WX    TMP DP  RH WIND       PRES   REMARKS
FOSSTON        FAIR      28  16  59 CALM      29.87F
BEMIDJI        FAIR      29  15  56 SE6       29.86F WCI  23
PARK RAPIDS    NOT AVBL
ELBOW LAKE     FAIR      32  28  86 E12       29.84F FOG     WCI  23
WADENA         FAIR      30  21  69 SE7       29.85F WCI  23
DETROIT LAKES  FAIR      32  23  69 SE8       29.85F WCI  25
MOORHEAD       FAIR      30  18  59 SE5       29.87F
FERGUS FALLS   FAIR      30  23  74 SE7       29.88F WCI  23
MORRIS MN      PTSUNNY   36  27  69 SE12      29.83F
STAPLES        FAIR      34  23  64 SE6       29.86F
$$
  *****  WEATHER ELSEWHERE ACROSS MINNESOTA  *****

CITY           SKY/WX    TMP DP  RH WIND       PRES   REMARKS
DULUTH         NOT AVBL
INTRNTL FALLS  NOT AVBL
ELY            CLOUDY    27  16  63 SW7       29.90F WCI  19
CLOQUET        FAIR      30  19  64 S6        29.91F WCI  24
WHEATON        PTSUNNY   34  27  75 SE12      29.84F
BRAINERD       NOT AVBL
HIBBING        FAIR      28  19  69 VRB3      29.89F
ALEXANDRIA     NOT AVBL
SAINT CLOUD    NOT AVBL
MINNEAPOLIS    NOT AVBL
$$

  *****  WEATHER ACROSS SOUTH DAKOTA  *****

CITY           SKY/WX    TMP DP  RH WIND       PRES   REMARKS
SIOUX FALLS    NOT AVBL
BROOKINGS      NOT AVBL
WATERTOWN      NOT AVBL
HURON          NOT AVBL
SISSETON       NOT AVBL
ABERDEEN       NOT AVBL
MITCHELL       NOT AVBL
PIERRE         NOT AVBL
MOBRIDGE       NOT AVBL
RAPID CITY     NOT AVBL
$$

  *****  SOME WEATHER IN NEARBY STATES *****

CITY           SKY/WX    TMP DP  RH WIND       PRES   REMARKS
GLASGOW MT     NOT AVBL
GREAT FALLS MT NOT AVBL
CHEYENNE WY    NOT AVBL
SCOTTSBLUFF NE NOT AVBL
OMAHA NE       NOT AVBL
DES MOINES IA  NOT AVBL
DAVENPORT IA   NOT AVBL
CHICAGO IL     PTSUNNY   50  34  54 SW13G20   30.12F
EAU CLAIRE WI  NOT AVBL
LA CROSSE WI   NOT AVBL
$$

  *****  SOME NATIONAL WEATHER *****

CITY           SKY/WX    TMP DP  RH WIND       PRES   REMARKS
LA GUARDIA NY  CLOUDY    54  20  26 SW12      30.36F
RALEIGH NC     PTSUNNY   65  21  18 S10       30.39F
ATLANTA GA     LGT RAIN  52  38  58 E9        30.32F
NEW ORLEANS LA PTSUNNY   78  67  68 S17G25    30.09F
OKLAHOMA CITY  NOT AVBL
ALBUQUERQUE NM NOT AVBL
SALT LAKE CITY LGT SNOW  32  29  88 E6        29.71S FOG
LOS ANGELES CA NOT AVBL
BOISE ID       NOT AVBL
SEATTLE WA     CLOUDY    38  36  92 S14       29.71S
$$

*** WEATHER ACROSS MANITOBA...SASKATCHEWAN AND ONTARIO ***
                ***ONTARIO***

CITY           SKY/WX    TMP DP  RH WIND       PRES   REMARKS
GERALDTON      PTSUNNY   23   5  46 SW13G18   29.94F WCI  11
THUNDER BAY    CLOUDY    27  14  59 E9        29.99F WCI  17
SIOUX LOOKOUT  PTSUNNY   23   9  54 SW12      29.84F WCI  12
TORONTO        MOSUNNY   46  27  46 W18G24    30.18F
BIG TROUT LK   PTSUNNY    3  -6  66 VRB2      29.84R
PICKLE LAKE    FLURRIES  21   9  58 SW12G23   29.80F WCI   9
DRYDEN         SUNNY     25   7  46 SW13G22   29.84F WCI  13
KENORA         PTSUNNY   21   7  53 SW12G21   29.83  WCI   9
$$
                *** MANITOBA***

CITY           SKY/WX    TMP DP  RH WIND       PRES   REMARKS
BRANDON        PTSUNNY   10   1  67 NW7       29.90S WCI   0
DAUPHIN        SUNNY     12   0  57 SW12      29.92F WCI  -2
ISLAND LAKE    PTSUNNY    0  -9  65 W7        29.87S WCI -13
PILOT MOUND      N/A     12   7  79 N6          N/A  WCI   3
THE PAS        FLURRIES   3  -8  60 N6        29.87S WCI  -8
THOMPSON       MOSUNNY   -8 -20  54 W10       29.86S WCI -26
WINNIPEG       CLOUDY    14   7  73 N7        29.93R WCI   4
LYNN LAKE      SUNNY    -11 -22  58 W5        29.81S WCI -23
CHURCHILL      CRYSTALS -24 -29  76 W13       29.85R VSB 1   WCI -48
GILLAM         PTSUNNY  -15 -27  53 W12       29.85F WCI -36
$$
                ***SASKATCHEWAN***

CITY           SKY/WX    TMP DP  RH WIND       PRES   REMARKS
ESTEVAN        CLOUDY     9   0  66 NE3       29.85F
KINDERSLEY     MOSUNNY   14   3  62 S10       29.72F WCI   1
LLOYDMINSTER   PTSUNNY   14   5  67 SW12      29.67R WCI   0
PRINCE ALBERT  PTSUNNY   10  -2  56 SW15      29.79F WCI  -6
REGINA         MOSUNNY   10  -2  56 W6        29.84S WCI   1
YORKTON        SUNNY      9  -2  61 W7        29.86F WCI  -3
N. BATTLEFORD  SUNNY     14   3  62 SW14G20   29.76F WCI  -1
LA RONGE       LGT SNOW  -2  -8  78 NE13      29.76F WCI -21
SASKATOON      MOSUNNY   12   1  62 S14       29.81F WCI  -3
SWIFT CURRENT  SUNNY      9   3  78 S8        29.71F WCI  -4
$$
NOTE: THESE ARE AUTOMATED STATIONS WITH LIMITED QUALITY CONTROL
      "FAIR" INDICATES FEW OR NO CLOUDS BELOW 12,000 FEET WITH NO
      SIGNIFICANT WEATHER AND/OR OBSTRUCTIONS TO VISIBILITY.
      SKY/WX - SKY CONDITION AND SIGNIFICANT WEATHER.
      TMP - AIR TEMPERATURE.    DP   - DEWPOINT TEMPERATURE.
      RH  - RELATIVE HUMIDITY.  PRES - PRESSURE.
      HX  - HEAT INDEX.         WCI  - WIND CHILL INDEX.
$




USA.gov is the U.S. government's official web portal to all federal, state and local government web resources and services.